,,,PA_Meas_PMT16A,,PR_Meas_QMR101_102,,RH_Meas_QMH101,,SR_Meas_QMS101,,TA_Meas_QMH101,,GenWind,,GenWind,
date,time,status,PA,status,PR,status,RH,status,SR,status,TA,status,DirAvg,status,SpdAvg,
2010-08-11, 00:00:05,VALID,1008.19,VALID,0,INVALID,111.801,VALID,0,VALID,23.8009,VALID,356,VALID,0,
2010-08-11, 00:01:05,VALID,1008.19,VALID,0,INVALID,111.763,VALID,0,VALID,23.7814,VALID,356,VALID,0,
2010-08-11, 00:02:05,VALID,1008.2,VALID,0,INVALID,111.748,VALID,0,VALID,23.7814,VALID,356,VALID,0,
2010-08-11, 00:03:05,VALID,1008.21,VALID,0,INVALID,111.702,VALID,0,VALID,23.7814,VALID,356,VALID,0,
2010-08-11, 00:04:05,VALID,1008.19,VALID,0,INVALID,111.672,VALID,0,VALID,23.7814,VALID,356,VALID,0,
2010-08-11, 00:05:05,VALID,1008.18,VALID,0,INVALID,111.641,VALID,0,VALID,23.7814,VALID,356,VALID,0,
2010-08-11, 00:06:05,VALID,1008.19,VALID,0,INVALID,111.565,VALID,0,VALID,23.7619,VALID,356,VALID,0,
2010-08-11, 00:07:05,VALID,1008.22,VALID,0,INVALID,111.557,VALID,0,VALID,23.7619,VALID,356,VALID,0,
2010-08-11, 00:08:05,VALID,1008.19,VALID,0,INVALID,111.527,VALID,0,VALID,23.7619,VALID,356,VALID,0,
2010-08-11, 00:09:05,VALID,1008.16,VALID,0,INVALID,111.504,VALID,0,VALID,23.7425,VALID,356,VALID,0,
2010-08-11, 00:10:05,VALID,1008.17,VALID,0,INVALID,111.473,VALID,0,VALID,23.7619,VALID,356,VALID,0,
2010-08-11, 00:11:05,VALID,1008.14,VALID,0,INVALID,111.397,VALID,0,VALID,23.7212,VALID,356,VALID,0,
2010-08-11, 00:12:05,VALID,1008.16,VALID,0,INVALID,111.351,VALID,0,VALID,23.7407,VALID,356,VALID,0,
2010-08-11, 00:13:05,VALID,1008.13,VALID,0,INVALID,111.29,VALID,0,VALID,23.7619,VALID,356,VALID,0,
2010-08-11, 00:14:04,VALID,1008.12,VALID,0,INVALID,111.252,VALID,0,VALID,23.7407,VALID,356,VALID,0,
2010-08-11, 00:15:04,VALID,1008.12,VALID,0,INVALID,111.206,VALID,0,VALID,23.7814,VALID,356,VALID,0,
2010-08-11, 00:16:04,VALID,1008.12,VALID,0,INVALID,111.199,VALID,0,VALID,23.7619,VALID,356,VALID,0,
2010-08-11, 00:17:04,VALID,1008.1,VALID,0,INVALID,111.107,VALID,0,VALID,23.7601,VALID,356,VALID,0,
2010-08-11, 00:18:04,VALID,1008.11,VALID,0,INVALID,111.061,VALID,0,VALID,23.7814,VALID,356,VALID,0,
2010-08-11, 00:19:04,VALID,1008.12,VALID,0,INVALID,111.008,VALID,0,VALID,23.7796,VALID,356,VALID,0,
2010-08-11, 00:20:04,VALID,1008.09,VALID,0,INVALID,110.985,VALID,0,VALID,23.7814,VALID,356,VALID,0,
2010-08-11, 00:21:04,VALID,1008.07,VALID,0,INVALID,110.954,VALID,0,VALID,23.8009,VALID,356,VALID,0,
2010-08-11, 00:22:04,VALID,1008.07,VALID,0,INVALID,110.909,VALID,0,VALID,23.8203,VALID,356,VALID,0,
2010-08-11, 00:23:04,VALID,1008.01,VALID,0,INVALID,110.886,VALID,0,VALID,23.7796,VALID,356,VALID,0,
2010-08-11, 00:24:04,VALID,1008.02,VALID,0,INVALID,110.871,VALID,0,VALID,23.7814,VALID,356,VALID,0,
2010-08-11, 00:25:04,VALID,1008.02,VALID,0,INVALID,110.825,VALID,0,VALID,23.7796,VALID,356,VALID,0,
2010-08-11, 00:26:04,VALID,1008,VALID,0,INVALID,110.809,VALID,0,VALID,23.8009,VALID,356,VALID,0,
2010-08-11, 00:27:04,VALID,1008,VALID,0,INVALID,110.741,VALID,0,VALID,23.8203,VALID,356,VALID,0,
2010-08-11, 00:28:04,VALID,1007.98,VALID,0,INVALID,110.687,VALID,0,VALID,23.7991,VALID,356,VALID,0,
2010-08-11, 00:29:04,VALID,1007.96,VALID,0,INVALID,110.703,VALID,0,VALID,23.8203,VALID,356,VALID,0,
2010-08-11, 00:30:04,VALID,1007.99,VALID,0,INVALID,110.687,VALID,0,VALID,23.7991,VALID,356,VALID,0,
2010-08-11, 00:31:04,VALID,1007.96,VALID,0,INVALID,110.687,VALID,0,VALID,23.7796,VALID,356,VALID,0,
2010-08-11, 00:32:04,VALID,1007.94,VALID,0,INVALID,110.703,VALID,0,VALID,23.8009,VALID,356,VALID,0,
2010-08-11, 00:33:04,VALID,1007.93,VALID,0,INVALID,110.665,VALID,0,VALID,23.7796,VALID,356,VALID,0,
2010-08-11, 00:34:04,VALID,1007.92,VALID,0,INVALID,110.649,VALID,0,VALID,23.7814,VALID,356,VALID,0,
2010-08-11, 00:35:04,VALID,1007.9,VALID,0,INVALID,110.642,VALID,0,VALID,23.7601,VALID,356,VALID,0,
2010-08-11, 00:36:04,VALID,1007.86,VALID,0,INVALID,110.611,VALID,0,VALID,23.7601,VALID,356,VALID,0,
2010-08-11, 00:37:04,VALID,1007.85,VALID,0,INVALID,110.588,VALID,0,VALID,23.7796,VALID,356,VALID,0,
2010-08-11, 00:38:04,VALID,1007.82,VALID,0,INVALID,110.55,VALID,0,VALID,23.7814,VALID,356,VALID,0,
2010-08-11, 00:39:04,VALID,1007.79,VALID,0,INVALID,110.527,VALID,0,VALID,23.7601,VALID,356,VALID,0,
2010-08-11, 00:40:04,VALID,1007.78,VALID,0,INVALID,110.55,VALID,0,VALID,23.7814,VALID,356,VALID,0,
2010-08-11, 00:41:04,VALID,1007.74,VALID,0,INVALID,110.52,VALID,0,VALID,23.7814,VALID,356,VALID,0,
2010-08-11, 00:42:04,VALID,1007.75,VALID,0,INVALID,110.474,VALID,0,VALID,23.7814,VALID,356,VALID,0,
2010-08-11, 00:43:04,VALID,1007.74,VALID,0,INVALID,110.481,VALID,0,VALID,23.7601,VALID,356,VALID,0,
2010-08-11, 00:44:04,VALID,1007.72,VALID,0,INVALID,110.436,VALID,0,VALID,23.7601,VALID,356,VALID,0,
2010-08-11, 00:45:04,VALID,1007.7,VALID,0,INVALID,110.451,VALID,0,VALID,23.7601,VALID,356,VALID,0,
2010-08-11, 00:46:04,VALID,1007.71,VALID,0,INVALID,110.451,VALID,0,VALID,23.7407,VALID,356,VALID,0,
2010-08-11, 00:47:04,VALID,1007.68,VALID,0,INVALID,110.436,VALID,0,VALID,23.7407,VALID,356,VALID,0,
2010-08-11, 00:48:04,VALID,1007.67,VALID,0,INVALID,110.398,VALID,0,VALID,23.7407,VALID,356,VALID,0,
2010-08-11, 00:49:04,VALID,1007.65,VALID,0,INVALID,110.405,VALID,0,VALID,23.7601,VALID,356,VALID,0,
2010-08-11, 00:50:04,VALID,1007.64,VALID,0,INVALID,110.375,VALID,0,VALID,23.7407,VALID,356,VALID,0,
2010-08-11, 00:51:04,VALID,1007.61,VALID,0,INVALID,110.352,VALID,0,VALID,23.7601,VALID,356,VALID,0,
2010-08-11, 00:52:04,VALID,1007.63,VALID,0,INVALID,110.329,VALID,0,VALID,23.7814,VALID,356,VALID,0,
2010-08-11, 00:53:04,VALID,1007.62,VALID,0,INVALID,110.314,VALID,0,VALID,23.7619,VALID,356,VALID,0,
2010-08-11, 00:54:04,VALID,1007.62,VALID,0,INVALID,110.298,VALID,0,VALID,23.7619,VALID,356,VALID,0,
2010-08-11, 00:55:04,VALID,1007.6,VALID,0,INVALID,110.314,VALID,0,VALID,23.7619,VALID,356,VALID,0,
2010-08-11, 00:56:04,VALID,1007.63,VALID,0,INVALID,110.306,VALID,0,VALID,23.7212,VALID,356,VALID,0,
2010-08-11, 00:57:04,VALID,1007.61,VALID,0,INVALID,110.314,VALID,0,VALID,23.7425,VALID,356,VALID,0,
2010-08-11, 00:58:04,VALID,1007.63,VALID,0,INVALID,110.321,VALID,0,VALID,23.7425,VALID,356,VALID,0,
2010-08-11, 00:59:04,VALID,1007.6,VALID,0,INVALID,110.306,VALID,0,VALID,23.723,VALID,356,VALID,0,
2010-08-11, 01:00:04,VALID,1007.61,VALID,0,INVALID,110.314,VALID,0,VALID,23.7017,VALID,356,VALID,0,
2010-08-11, 01:01:04,VALID,1007.61,VALID,0,INVALID,110.306,VALID,0,VALID,23.7017,VALID,356,VALID,0,
2010-08-11, 01:02:04,VALID,1007.61,VALID,0,INVALID,110.314,VALID,0,VALID,23.6841,VALID,356,VALID,0,
2010-08-11, 01:03:04,VALID,1007.58,VALID,0,INVALID,110.344,VALID,0,VALID,23.6823,VALID,356,VALID,0,
2010-08-11, 01:04:04,VALID,1007.56,VALID,0,INVALID,110.321,VALID,0,VALID,23.6841,VALID,356,VALID,0,
2010-08-11, 01:05:04,VALID,1007.58,VALID,0,INVALID,110.306,VALID,0,VALID,23.6841,VALID,356,VALID,0,
2010-08-11, 01:06:04,VALID,1007.53,VALID,0,INVALID,110.314,VALID,0,VALID,23.6646,VALID,356,VALID,0,
2010-08-11, 01:07:04,VALID,1007.54,VALID,0,INVALID,110.268,VALID,0,VALID,23.6434,VALID,356,VALID,0,
2010-08-11, 01:08:04,VALID,1007.53,VALID,0,INVALID,110.298,VALID,0,VALID,23.6646,VALID,356,VALID,0,
2010-08-11, 01:09:04,VALID,1007.48,VALID,0,INVALID,110.268,VALID,0,VALID,23.6646,VALID,356,VALID,0,
2010-08-11, 01:10:04,VALID,1007.49,VALID,0,INVALID,110.26,VALID,0,VALID,23.6434,VALID,356,VALID,0,
2010-08-11, 01:11:04,VALID,1007.44,VALID,0,INVALID,110.253,VALID,0,VALID,23.6434,VALID,356,VALID,0,
2010-08-11, 01:12:04,VALID,1007.46,VALID,0,INVALID,110.253,VALID,0,VALID,23.6434,VALID,356,VALID,0,
2010-08-11, 01:13:04,VALID,1007.43,VALID,0,INVALID,110.23,VALID,0,VALID,23.6452,VALID,356,VALID,0,
2010-08-11, 01:14:04,VALID,1007.43,VALID,0,INVALID,110.245,VALID,0,VALID,23.6646,VALID,356,VALID,0,
2010-08-11, 01:15:04,VALID,1007.41,VALID,0,INVALID,110.207,VALID,0,VALID,23.6452,VALID,356,VALID,0,
2010-08-11, 01:16:04,VALID,1007.39,VALID,0,INVALID,110.222,VALID,0,VALID,23.6239,VALID,356,VALID,0,
2010-08-11, 01:17:04,VALID,1007.4,VALID,0,INVALID,110.222,VALID,0,VALID,23.6452,VALID,356,VALID,0,
2010-08-11, 01:18:04,VALID,1007.4,VALID,0,INVALID,110.207,VALID,0,VALID,23.6257,VALID,356,VALID,0,
2010-08-11, 01:19:04,VALID,1007.4,VALID,0,INVALID,110.222,VALID,0,VALID,23.6452,VALID,356,VALID,0,
2010-08-11, 01:20:04,VALID,1007.39,VALID,0,INVALID,110.237,VALID,0,VALID,23.6257,VALID,356,VALID,0,
2010-08-11, 01:21:04,VALID,1007.37,VALID,0,INVALID,110.214,VALID,0,VALID,23.6257,VALID,356,VALID,0,
2010-08-11, 01:22:04,VALID,1007.41,VALID,0,INVALID,110.214,VALID,0,VALID,23.6257,VALID,356,VALID,0,
2010-08-11, 01:23:04,VALID,1007.4,VALID,0,INVALID,110.237,VALID,0,VALID,23.6062,VALID,356,VALID,0,
2010-08-11, 01:24:04,VALID,1007.41,VALID,0,INVALID,110.237,VALID,0,VALID,23.5655,VALID,356,VALID,0,
2010-08-11, 01:25:04,VALID,1007.42,VALID,0,INVALID,110.237,VALID,0,VALID,23.5868,VALID,356,VALID,0,
2010-08-11, 01:26:04,VALID,1007.41,VALID,0,INVALID,110.237,VALID,0,VALID,23.5655,VALID,356,VALID,0,
2010-08-11, 01:27:04,VALID,1007.42,VALID,0,INVALID,110.237,VALID,0,VALID,23.5478,VALID,356,VALID,0,
2010-08-11, 01:28:04,VALID,1007.41,VALID,0,INVALID,110.23,VALID,0,VALID,23.5673,VALID,356,VALID,0,
2010-08-11, 01:29:04,VALID,1007.41,VALID,0,INVALID,110.207,VALID,0,VALID,23.5478,VALID,356,VALID,0,
2010-08-11, 01:30:04,VALID,1007.4,VALID,0,INVALID,110.192,VALID,0,VALID,23.5266,VALID,356,VALID,0,
2010-08-11, 01:31:04,VALID,1007.38,VALID,0,INVALID,110.207,VALID,0,VALID,23.5496,VALID,356,VALID,0,
2010-08-11, 01:32:04,VALID,1007.38,VALID,0,INVALID,110.214,VALID,0,VALID,23.5284,VALID,356,VALID,0,
2010-08-11, 01:33:04,VALID,1007.36,VALID,0,INVALID,110.176,VALID,0,VALID,23.5071,VALID,356,VALID,0,
2010-08-11, 01:34:04,VALID,1007.36,VALID,0,INVALID,110.153,VALID,0,VALID,23.5284,VALID,356,VALID,0,
2010-08-11, 01:35:04,VALID,1007.35,VALID,0,INVALID,110.161,VALID,0,VALID,23.5284,VALID,356,VALID,0,
2010-08-11, 01:36:04,VALID,1007.33,VALID,0,INVALID,110.138,VALID,0,VALID,23.5071,VALID,356,VALID,0,
2010-08-11, 01:37:04,VALID,1007.32,VALID,0,INVALID,110.146,VALID,0,VALID,23.5266,VALID,356,VALID,0,
2010-08-11, 01:38:04,VALID,1007.33,VALID,0,INVALID,110.115,VALID,0,VALID,23.5284,VALID,356,VALID,0,
2010-08-11, 01:39:04,VALID,1007.33,VALID,0,INVALID,110.115,VALID,0,VALID,23.5089,VALID,356,VALID,0,
2010-08-11, 01:40:04,VALID,1007.29,VALID,0,INVALID,110.108,VALID,0,VALID,23.4877,VALID,356,VALID,0,
2010-08-11, 01:41:04,VALID,1007.26,VALID,0,INVALID,110.138,VALID,0,VALID,23.5089,VALID,356,VALID,0,
2010-08-11, 01:42:04,VALID,1007.25,VALID,0,INVALID,110.115,VALID,0,VALID,23.5089,VALID,356,VALID,0,
2010-08-11, 01:43:04,VALID,1007.21,VALID,0,INVALID,110.1,VALID,0,VALID,23.5089,VALID,356,VALID,0,
2010-08-11, 01:44:04,VALID,1007.2,VALID,0,INVALID,110.085,VALID,0,VALID,23.5089,VALID,356,VALID,0,
2010-08-11, 01:45:04,VALID,1007.19,VALID,0,INVALID,110.077,VALID,0,VALID,23.4877,VALID,356,VALID,0,
2010-08-11, 01:46:04,VALID,1007.17,VALID,0,INVALID,110.047,VALID,0,VALID,23.4877,VALID,356,VALID,0,
2010-08-11, 01:47:04,VALID,1007.16,VALID,0,INVALID,110.039,VALID,0,VALID,23.4877,VALID,356,VALID,0,
2010-08-11, 01:48:04,VALID,1007.16,VALID,0,INVALID,110.024,VALID,0,VALID,23.5284,VALID,356,VALID,0,
2010-08-11, 01:49:04,VALID,1007.15,VALID,0,INVALID,110.001,VALID,0,VALID,23.5284,VALID,356,VALID,0,
2010-08-11, 01:50:04,VALID,1007.13,VALID,0,INVALID,109.986,VALID,0,VALID,23.5284,VALID,356,VALID,0,
2010-08-11, 01:51:04,VALID,1007.13,VALID,0,INVALID,109.978,VALID,0,VALID,23.5284,VALID,356,VALID,0,
2010-08-11, 01:52:04,VALID,1007.12,VALID,0,INVALID,109.986,VALID,0,VALID,23.5284,VALID,356,VALID,0,
2010-08-11, 01:53:04,VALID,1007.08,VALID,0,INVALID,109.955,VALID,0,VALID,23.5284,VALID,356,VALID,0,
2010-08-11, 01:54:04,VALID,1007.08,VALID,0,INVALID,109.932,VALID,0,VALID,23.5089,VALID,356,VALID,0,
2010-08-11, 01:55:04,VALID,1007.07,VALID,0,INVALID,109.925,VALID,0,VALID,23.5284,VALID,356,VALID,0,
2010-08-11, 01:56:04,VALID,1007.07,VALID,0,INVALID,109.902,VALID,0,VALID,23.5266,VALID,356,VALID,0,
2010-08-11, 01:57:04,VALID,1007.08,VALID,0,INVALID,109.886,VALID,0,VALID,23.5266,VALID,356,VALID,0,
2010-08-11, 01:58:04,VALID,1007.09,VALID,0,INVALID,109.879,VALID,0,VALID,23.5266,VALID,356,VALID,0,
2010-08-11, 01:59:04,VALID,1007.06,VALID,0,INVALID,109.879,VALID,0,VALID,23.5071,VALID,356,VALID,0,
2010-08-11, 02:00:04,VALID,1007.05,VALID,0,INVALID,109.909,VALID,0,VALID,23.5284,VALID,356,VALID,0,
2010-08-11, 02:01:04,VALID,1007.03,VALID,0,INVALID,109.894,VALID,0,VALID,23.5284,VALID,356,VALID,0,
2010-08-11, 02:02:04,VALID,1007.02,VALID,0,INVALID,109.894,VALID,0,VALID,23.5266,VALID,356,VALID,0,
2010-08-11, 02:03:04,VALID,1006.99,VALID,0,INVALID,109.848,VALID,0,VALID,23.5478,VALID,356,VALID,0,
2010-08-11, 02:04:04,VALID,1007,VALID,0,INVALID,109.825,VALID,0,VALID,23.5478,VALID,356,VALID,0,
2010-08-11, 02:05:04,VALID,1006.98,VALID,0,INVALID,109.825,VALID,0,VALID,23.5478,VALID,356,VALID,0,
2010-08-11, 02:06:04,VALID,1007,VALID,0,INVALID,109.833,VALID,0,VALID,23.5478,VALID,356,VALID,0,
2010-08-11, 02:07:04,VALID,1006.99,VALID,0,INVALID,109.833,VALID,0,VALID,23.5478,VALID,356,VALID,0,
2010-08-11, 02:08:04,VALID,1006.99,VALID,0,INVALID,109.833,VALID,0,VALID,23.5478,VALID,356,VALID,0,
2010-08-11, 02:09:04,VALID,1006.98,VALID,0,INVALID,109.81,VALID,0,VALID,23.5691,VALID,356,VALID,0,
2010-08-11, 02:10:04,VALID,1006.97,VALID,0,INVALID,109.81,VALID,0,VALID,23.546,VALID,356,VALID,0,
2010-08-11, 02:11:04,VALID,1006.98,VALID,0,INVALID,109.795,VALID,0,VALID,23.5673,VALID,356,VALID,0,
2010-08-11, 02:12:04,VALID,1006.97,VALID,0,INVALID,109.78,VALID,0,VALID,23.546,VALID,356,VALID,0,
2010-08-11, 02:13:04,VALID,1006.96,VALID,0,INVALID,109.795,VALID,0,VALID,23.5673,VALID,356,VALID,0,
2010-08-11, 02:14:04,VALID,1006.95,VALID,0,INVALID,109.78,VALID,0,VALID,23.5673,VALID,356,VALID,0,
2010-08-11, 02:15:04,VALID,1006.96,VALID,0,INVALID,109.787,VALID,0,VALID,23.5673,VALID,356,VALID,0,
2010-08-11, 02:16:04,VALID,1006.94,VALID,0,INVALID,109.757,VALID,0,VALID,23.546,VALID,356,VALID,0,
2010-08-11, 02:17:04,VALID,1006.93,VALID,0,INVALID,109.787,VALID,0,VALID,23.546,VALID,356,VALID,0,
2010-08-11, 02:18:04,VALID,1006.92,VALID,0,INVALID,109.764,VALID,0,VALID,23.546,VALID,356,VALID,0,
2010-08-11, 02:19:04,VALID,1006.94,VALID,0,INVALID,109.772,VALID,0,VALID,23.5673,VALID,356,VALID,0,
2010-08-11, 02:20:04,VALID,1006.93,VALID,0,INVALID,109.772,VALID,0,VALID,23.5266,VALID,356,VALID,0,
2010-08-11, 02:21:04,VALID,1006.92,VALID,0,INVALID,109.772,VALID,0,VALID,23.546,VALID,356,VALID,0,
2010-08-11, 02:22:04,VALID,1006.92,VALID,0,INVALID,109.772,VALID,0,VALID,23.5266,VALID,356,VALID,0,
2010-08-11, 02:23:04,VALID,1006.9,VALID,0,INVALID,109.757,VALID,0,VALID,23.5266,VALID,356,VALID,0,
2010-08-11, 02:24:04,VALID,1006.89,VALID,0,INVALID,109.764,VALID,0,VALID,23.5266,VALID,356,VALID,0,
2010-08-11, 02:25:04,VALID,1006.89,VALID,0,INVALID,109.78,VALID,0,VALID,23.5071,VALID,356,VALID,0,
2010-08-11, 02:26:04,VALID,1006.87,VALID,0,INVALID,109.757,VALID,0,VALID,23.5071,VALID,356,VALID,0,
2010-08-11, 02:27:04,VALID,1006.84,VALID,0,INVALID,109.757,VALID,0,VALID,23.4859,VALID,356,VALID,0,
2010-08-11, 02:28:04,VALID,1006.81,VALID,0,INVALID,109.734,VALID,0,VALID,23.5071,VALID,356,VALID,0,
2010-08-11, 02:29:04,VALID,1006.82,VALID,0,INVALID,109.711,VALID,0,VALID,23.546,VALID,356,VALID,0,
2010-08-11, 02:30:04,VALID,1006.8,VALID,0,INVALID,109.703,VALID,0.100563,VALID,23.5248,VALID,356,VALID,0,
2010-08-11, 02:31:04,VALID,1006.79,VALID,0,INVALID,109.703,VALID,0,VALID,23.5266,VALID,356,VALID,0,
2010-08-11, 02:32:04,VALID,1006.81,VALID,0,INVALID,109.726,VALID,0,VALID,23.5266,VALID,356,VALID,0,
2010-08-11, 02:33:04,VALID,1006.81,VALID,0,INVALID,109.726,VALID,0,VALID,23.5478,VALID,356,VALID,0,
2010-08-11, 02:34:04,VALID,1006.81,VALID,0,INVALID,109.719,VALID,0.100563,VALID,23.5266,VALID,356,VALID,0,
2010-08-11, 02:35:04,VALID,1006.82,VALID,0,INVALID,109.719,VALID,0,VALID,23.5071,VALID,356,VALID,0,
2010-08-11, 02:36:04,VALID,1006.79,VALID,0,INVALID,109.696,VALID,0.100563,VALID,23.5266,VALID,356,VALID,0,
2010-08-11, 02:37:04,VALID,1006.8,VALID,0,INVALID,109.68,VALID,0,VALID,23.5266,VALID,356,VALID,0,
2010-08-11, 02:38:04,VALID,1006.78,VALID,0,INVALID,109.665,VALID,0.100563,VALID,23.5266,VALID,356,VALID,0,
2010-08-11, 02:39:04,VALID,1006.79,VALID,0,INVALID,109.658,VALID,0,VALID,23.5266,VALID,356,VALID,0,
2010-08-11, 02:40:04,VALID,1006.76,VALID,0,INVALID,109.658,VALID,0,VALID,23.5266,VALID,356,VALID,0,
2010-08-11, 02:41:04,VALID,1006.76,VALID,0,INVALID,109.68,VALID,0,VALID,23.5284,VALID,356,VALID,0,
2010-08-11, 02:42:04,VALID,1006.74,VALID,0,INVALID,109.688,VALID,0,VALID,23.5266,VALID,356,VALID,0,
2010-08-11, 02:43:04,VALID,1006.73,VALID,0,INVALID,109.658,VALID,0,VALID,23.5284,VALID,356,VALID,0,
2010-08-11, 02:44:04,VALID,1006.73,VALID,0,INVALID,109.65,VALID,0,VALID,23.5266,VALID,356,VALID,0,
2010-08-11, 02:45:04,VALID,1006.67,VALID,0,INVALID,109.635,VALID,0,VALID,23.5266,VALID,356,VALID,0,
2010-08-11, 02:46:04,VALID,1006.67,VALID,0,INVALID,109.665,VALID,0,VALID,23.5266,VALID,356,VALID,0,
2010-08-11, 02:47:04,VALID,1006.68,VALID,0,INVALID,109.642,VALID,0.100563,VALID,23.5478,VALID,356,VALID,0,
2010-08-11, 02:48:04,VALID,1006.66,VALID,0,INVALID,109.635,VALID,0,VALID,23.5053,VALID,356,VALID,0,
2010-08-11, 02:49:04,VALID,1006.64,VALID,0,INVALID,109.642,VALID,0,VALID,23.5071,VALID,356,VALID,0,
2010-08-11, 02:50:04,VALID,1006.63,VALID,0,INVALID,109.68,VALID,0,VALID,23.5284,VALID,356,VALID,0,
2010-08-11, 02:51:04,VALID,1006.63,VALID,0,INVALID,109.635,VALID,0,VALID,23.5071,VALID,356,VALID,0,
2010-08-11, 02:52:04,VALID,1006.61,VALID,0,INVALID,109.635,VALID,0,VALID,23.5071,VALID,356,VALID,0,
2010-08-11, 02:53:04,VALID,1006.6,VALID,0,INVALID,109.635,VALID,0,VALID,23.5071,VALID,356,VALID,0,
2010-08-11, 02:54:04,VALID,1006.62,VALID,0,INVALID,109.619,VALID,0.100563,VALID,23.5071,VALID,356,VALID,0,
2010-08-11, 02:55:04,VALID,1006.62,VALID,0,INVALID,109.627,VALID,0,VALID,23.5284,VALID,356,VALID,0,
2010-08-11, 02:56:04,VALID,1006.63,VALID,0,INVALID,109.627,VALID,0,VALID,23.5071,VALID,356,VALID,0,
2010-08-11, 02:57:04,VALID,1006.63,VALID,0,INVALID,109.635,VALID,0,VALID,23.5089,VALID,356,VALID,0,
2010-08-11, 02:58:04,VALID,1006.62,VALID,0,INVALID,109.627,VALID,0,VALID,23.4877,VALID,356,VALID,0,
2010-08-11, 02:59:04,VALID,1006.63,VALID,0,INVALID,109.642,VALID,0,VALID,23.4877,VALID,356,VALID,0,
2010-08-11, 03:00:04,VALID,1006.63,VALID,0,INVALID,109.642,VALID,0,VALID,23.4877,VALID,356,VALID,0,
2010-08-11, 03:01:04,VALID,1006.61,VALID,0,INVALID,109.65,VALID,0,VALID,23.5089,VALID,356,VALID,0,
2010-08-11, 03:02:04,VALID,1006.61,VALID,0,INVALID,109.65,VALID,0,VALID,23.4877,VALID,356,VALID,0,
2010-08-11, 03:03:04,VALID,1006.56,VALID,0,INVALID,109.65,VALID,0,VALID,23.4877,VALID,356,VALID,0,
2010-08-11, 03:04:04,VALID,1006.57,VALID,0,INVALID,109.635,VALID,0.100563,VALID,23.4877,VALID,356,VALID,0,
2010-08-11, 03:05:04,VALID,1006.57,VALID,0,INVALID,109.619,VALID,0,VALID,23.4877,VALID,356,VALID,0,
2010-08-11, 03:06:04,VALID,1006.58,VALID,0,INVALID,109.642,VALID,0,VALID,23.4682,VALID,356,VALID,0,
2010-08-11, 03:07:04,VALID,1006.57,VALID,0,INVALID,109.627,VALID,0,VALID,23.4877,VALID,356,VALID,0,
2010-08-11, 03:08:04,VALID,1006.58,VALID,0,INVALID,109.642,VALID,0,VALID,23.4682,VALID,356,VALID,0,
2010-08-11, 03:09:04,VALID,1006.58,VALID,0,INVALID,109.65,VALID,0,VALID,23.4894,VALID,356,VALID,0,
2010-08-11, 03:10:04,VALID,1006.56,VALID,0,INVALID,109.635,VALID,0,VALID,23.4682,VALID,356,VALID,0,
2010-08-11, 03:11:04,VALID,1006.55,VALID,0,INVALID,109.658,VALID,0,VALID,23.47,VALID,356,VALID,0,
2010-08-11, 03:12:04,VALID,1006.54,VALID,0,INVALID,109.635,VALID,0,VALID,23.4682,VALID,356,VALID,0,
2010-08-11, 03:13:04,VALID,1006.56,VALID,0,INVALID,109.604,VALID,0,VALID,23.4487,VALID,356,VALID,0,
2010-08-11, 03:14:04,VALID,1006.53,VALID,0,INVALID,109.604,VALID,0,VALID,23.4894,VALID,356,VALID,0,
2010-08-11, 03:15:04,VALID,1006.53,VALID,0,INVALID,109.612,VALID,0,VALID,23.4682,VALID,356,VALID,0,
2010-08-11, 03:16:04,VALID,1006.55,VALID,0,INVALID,109.619,VALID,0,VALID,23.4682,VALID,356,VALID,0,
2010-08-11, 03:17:04,VALID,1006.54,VALID,0,INVALID,109.596,VALID,0,VALID,23.4487,VALID,356,VALID,0,
2010-08-11, 03:18:04,VALID,1006.53,VALID,0,INVALID,109.589,VALID,0,VALID,23.47,VALID,356,VALID,0,
2010-08-11, 03:19:04,VALID,1006.5,VALID,0,INVALID,109.619,VALID,0,VALID,23.47,VALID,356,VALID,0,
2010-08-11, 03:20:04,VALID,1006.54,VALID,0,INVALID,109.604,VALID,0,VALID,23.4487,VALID,356,VALID,0,
2010-08-11, 03:21:04,VALID,1006.52,VALID,0,INVALID,109.604,VALID,0,VALID,23.4505,VALID,356,VALID,0,
2010-08-11, 03:22:04,VALID,1006.52,VALID,0,INVALID,109.619,VALID,0,VALID,23.4505,VALID,356,VALID,0,
2010-08-11, 03:23:04,VALID,1006.53,VALID,0,INVALID,109.627,VALID,0,VALID,23.4505,VALID,356,VALID,0,
2010-08-11, 03:24:04,VALID,1006.53,VALID,0,INVALID,109.627,VALID,0,VALID,23.4293,VALID,356,VALID,0,
2010-08-11, 03:25:04,VALID,1006.5,VALID,0,INVALID,109.581,VALID,0,VALID,23.4505,VALID,356,VALID,0,
2010-08-11, 03:26:04,VALID,1006.51,VALID,0,INVALID,109.596,VALID,0,VALID,23.4293,VALID,356,VALID,0,
2010-08-11, 03:27:04,VALID,1006.53,VALID,0,INVALID,109.581,VALID,0,VALID,23.4311,VALID,356,VALID,0,
2010-08-11, 03:28:04,VALID,1006.5,VALID,0,INVALID,109.619,VALID,0,VALID,23.4098,VALID,356,VALID,0,
2010-08-11, 03:29:04,VALID,1006.54,VALID,0,INVALID,109.635,VALID,0,VALID,23.4098,VALID,356,VALID,0,
2010-08-11, 03:30:04,VALID,1006.55,VALID,0,INVALID,109.627,VALID,0,VALID,23.4116,VALID,356,VALID,0,
2010-08-11, 03:31:04,VALID,1006.58,VALID,0,INVALID,109.635,VALID,0,VALID,23.3904,VALID,356,VALID,0,
2010-08-11, 03:32:04,VALID,1006.58,VALID,0,INVALID,109.665,VALID,0,VALID,23.3921,VALID,356,VALID,0,
2010-08-11, 03:33:04,VALID,1006.59,VALID,0,INVALID,109.65,VALID,0,VALID,23.3921,VALID,356,VALID,0,
2010-08-11, 03:34:04,VALID,1006.62,VALID,0,INVALID,109.673,VALID,0,VALID,23.3727,VALID,356,VALID,0,
2010-08-11, 03:35:04,VALID,1006.57,VALID,0,INVALID,109.68,VALID,0,VALID,23.3727,VALID,356,VALID,0,
2010-08-11, 03:36:04,VALID,1006.58,VALID,0,INVALID,109.635,VALID,0,VALID,23.3727,VALID,356,VALID,0,
2010-08-11, 03:37:04,VALID,1006.6,VALID,0,INVALID,109.635,VALID,0,VALID,23.3514,VALID,356,VALID,0,
2010-08-11, 03:38:04,VALID,1006.61,VALID,0,INVALID,109.665,VALID,0,VALID,23.3514,VALID,356,VALID,0,
2010-08-11, 03:39:04,VALID,1006.56,VALID,0,INVALID,109.642,VALID,0,VALID,23.3727,VALID,356,VALID,0,
2010-08-11, 03:40:04,VALID,1006.58,VALID,0,INVALID,109.658,VALID,0,VALID,23.3532,VALID,356,VALID,0,
2010-08-11, 03:41:04,VALID,1006.58,VALID,0,INVALID,109.627,VALID,0,VALID,23.3532,VALID,356,VALID,0,
2010-08-11, 03:42:04,VALID,1006.56,VALID,0,INVALID,109.619,VALID,0,VALID,23.3514,VALID,356,VALID,0,
2010-08-11, 03:43:04,VALID,1006.56,VALID,0,INVALID,109.589,VALID,0,VALID,23.3727,VALID,356,VALID,0,
2010-08-11, 03:44:04,VALID,1006.56,VALID,0,INVALID,109.596,VALID,0,VALID,23.3514,VALID,356,VALID,0,
2010-08-11, 03:45:04,VALID,1006.54,VALID,0,INVALID,109.574,VALID,0,VALID,23.3709,VALID,356,VALID,0,
2010-08-11, 03:46:04,VALID,1006.55,VALID,0,INVALID,109.566,VALID,0,VALID,23.3709,VALID,356,VALID,0,
2010-08-11, 03:47:04,VALID,1006.54,VALID,0,INVALID,109.558,VALID,0,VALID,23.3709,VALID,356,VALID,0,
2010-08-11, 03:48:04,VALID,1006.56,VALID,0,INVALID,109.543,VALID,0,VALID,23.3921,VALID,356,VALID,0,
2010-08-11, 03:49:04,VALID,1006.54,VALID,0,INVALID,109.528,VALID,0,VALID,23.3921,VALID,356,VALID,0,
2010-08-11, 03:50:04,VALID,1006.53,VALID,0,INVALID,109.535,VALID,0,VALID,23.4116,VALID,356,VALID,0,
2010-08-11, 03:51:04,VALID,1006.57,VALID,0,INVALID,109.535,VALID,0,VALID,23.3904,VALID,356,VALID,0,
2010-08-11, 03:52:04,VALID,1006.55,VALID,0,INVALID,109.528,VALID,0,VALID,23.3904,VALID,356,VALID,0,
2010-08-11, 03:53:04,VALID,1006.57,VALID,0,INVALID,109.551,VALID,0,VALID,23.3921,VALID,356,VALID,0,
2010-08-11, 03:54:04,VALID,1006.55,VALID,0,INVALID,109.543,VALID,0,VALID,23.3921,VALID,356,VALID,0,